Meteo Giornale » Osservazioni meteo Danimarca » Karup

ore: 04:20 - Osservazioni Meteo Karup
Lat. 56° 18' N Lon. 9° 7' E Alt. 52 metri s.l.m.

molto_nuvoloso Europe/Copenhagen

11 °C

Molto Nuvoloso

Temp. 24 Ore

10 °C

16 °C

Ovest

16.7 Km/h

Dew point 6 °C

Umidità 71 %

Visibilità  10 Km

Il sole sorge alle ore 07:11

Il sole tramonta alle ore 19:19

Data e Ora Cielo e Fenomeni T °C DP °C Um. % Pres. hPa Vis. km Vento km/h
Oggi h: 04:20 molto_nuvoloso Molto Nuvoloso 11 6 71 1007 10 O 16.7
Oggi h: 03:50 nuvoloso Nuvoloso 10 7 81 1007 10 O 22.2
Oggi h: 03:20 molto_nuvoloso Molto Nuvoloso 11 7 76 1007 10 O 22.2
Oggi h: 02:50 nuvoloso Nuvoloso 11 7 76 1007 10 O 22.2
Oggi h: 02:20 molto_nuvoloso Molto Nuvoloso 12 7 71 1007 10 O/NO 25.9
Oggi h: 01:50 molto_nuvoloso Molto Nuvoloso 12 7 71 1007 10 O/NO 25.9
Oggi h: 01:20 molto_nuvoloso Molto Nuvoloso 12 8 76 1007 10 O/NO 27.8
Oggi h: 00:50 molto_nuvoloso Molto Nuvoloso 12 8 76 1006 10 O/NO 29.6
Oggi h: 00:20 molto_nuvoloso Molto Nuvoloso 12 9 81 1006 10 O/NO 33.3
Ieri h: 23:53 molto_nuvoloso Molto Nuvoloso 13 8 71 1006 10 O/NO 37
Ieri h: 23:50 molto_nuvoloso Molto Nuvoloso 13 8 71 1006 10 O/NO 38.8
Ieri h: 23:20 molto_nuvoloso Molto Nuvoloso 12 8 76 1006 10 O/NO 37
Ieri h: 23:15 molto_nuvoloso Molto Nuvoloso 12 9 81 1005 10 O/NO 35.2
Ieri h: 23:14 molto_nuvoloso Molto Nuvoloso 12 9 81 1006 10 O/NO 35.2
Ieri h: 23:05 molto_nuvoloso Molto Nuvoloso 12 9 81 1005 10 O/NO 33.3
Ieri h: 22:20 molto_nuvoloso Molto Nuvoloso 13 9 76 1005 10 O/NO 33.3
Ieri h: 22:04 molto_nuvoloso Molto Nuvoloso 12 9 81 1004 10 O/NO 35.2
Ieri h: 22:01 molto_nuvoloso Molto Nuvoloso 13 9 76 1004 10 O/NO 35.2
Ieri h: 22:00 molto_nuvoloso Molto Nuvoloso 13 9 76 1004 10 O/NO 35.2
Ieri h: 21:55 molto_nuvoloso Molto Nuvoloso 13 8 71 1004 10 O/NO 35.2
Ieri h: 21:54 molto_nuvoloso Molto Nuvoloso 13 8 71 1004 10 O/NO 35.2
Ieri h: 21:50 molto_nuvoloso Molto Nuvoloso 13 9 76 1004 10 O/NO 33.3
Ieri h: 21:49 molto_nuvoloso Molto Nuvoloso 13 8 71 1004 10 O/NO 33.3
Ieri h: 21:48 molto_nuvoloso Molto Nuvoloso 13 9 76 1004 10 O/NO 33.3
Ieri h: 21:47 molto_nuvoloso Molto Nuvoloso 13 9 76 1004 10 O/NO 33.3
Ieri h: 21:25 molto_nuvoloso Molto Nuvoloso 13 9 76 1004 10 O/NO 35.2
Ieri h: 21:20 molto_nuvoloso Molto Nuvoloso 13 9 76 1004 10 O/NO 35.2
Ieri h: 20:50 molto_nuvoloso Molto Nuvoloso 13 9 76 1003 10 O 37
Ieri h: 20:20 molto_nuvoloso Molto Nuvoloso 12 8 76 1003 10 O 38.8
Ieri h: 19:50 molto_nuvoloso Molto Nuvoloso 12 9 81 1003 10 O 33.3
Ieri h: 19:35 coperto_pioggia Pioggia Debole 12 9 81 1003 10 O/NO 29.6
Ieri h: 19:34 coperto_pioggia Pioggia Debole 11 9 87 1003 10 O/NO 29.6
Ieri h: 19:29 coperto_pioggia Pioviggine 11 9 87 1003 10 O/NO 31.5
Ieri h: 19:27 coperto_pioggia Pioviggine Leggera 12 9 81 1003 10 O/NO 33.3
Ieri h: 19:20 nuvoloso Nuvoloso 12 9 81 1002 10 O 35.2
Ieri h: 18:50 nuvoloso Nuvoloso 11 8 81 1002 10 O 44.4
Ieri h: 18:21 nuvoloso Nuvoloso 12 8 76 1002 10 O 40.7
Ieri h: 18:20 coperto_pioggia Pioggia Debole 12 8 76 1002 10 O 42.6
Ieri h: 18:15 coperto_pioggia Pioggia Debole 12 8 76 1001 10 O 48.1
Ieri h: 18:14 coperto_pioggia Pioggia Debole 12 8 76 1001 10 O 48.1
Ieri h: 18:02 molto_nuvoloso Molto Nuvoloso 11 8 81 1002 10 O 48.1
Ieri h: 17:56 molto_nuvoloso Molto Nuvoloso 12 7 71 1001 10 O 48.1
Ieri h: 17:55 molto_nuvoloso Molto Nuvoloso 12 7 71 1001 10 O 46.3
Ieri h: 17:50 nuvoloso Nuvoloso 12 7 71 1001 10 O 48.1
Ieri h: 17:20 nuvoloso Nuvoloso 13 6 62 1001 10 O/NO 55.5
Ieri h: 17:16 molto_nuvoloso Molto Nuvoloso 13 6 62 1001 10 O/NO 51.8
Ieri h: 17:15 molto_nuvoloso Molto Nuvoloso 13 6 62 1001 10 O/NO 50
Ieri h: 16:50 molto_nuvoloso Molto Nuvoloso 13 6 62 1001 10 O 55.5
Ieri h: 16:43 molto_nuvoloso Molto Nuvoloso 13 6 62 1001 10 O 50
Ieri h: 16:42 molto_nuvoloso Molto Nuvoloso 13 6 62 1001 10 O 50
Ieri h: 16:37 molto_nuvoloso Molto Nuvoloso 13 7 66 1001 10 O/NO 53.7
Ieri h: 16:36 molto_nuvoloso Molto Nuvoloso 13 7 66 1001 10 O/NO 53.7
Ieri h: 16:20 molto_nuvoloso Molto Nuvoloso 13 6 62 1001 10 O 48.1
Ieri h: 16:10 molto_nuvoloso Molto Nuvoloso 13 7 66 1001 10 O 46.3
Ieri h: 16:09 molto_nuvoloso Molto Nuvoloso 13 6 62 1001 10 O 48.1
Ieri h: 15:59 molto_nuvoloso Molto Nuvoloso 13 6 62 1001 10 O 38.8
Ieri h: 15:52 molto_nuvoloso Molto Nuvoloso 13 7 66 1000 10 O 42.6
Ieri h: 15:50 molto_nuvoloso Molto Nuvoloso 13 7 66 1000 10 O 48.1
Ieri h: 15:20 molto_nuvoloso Molto Nuvoloso 13 10 81 1000 10 O 40.7
Ieri h: 15:05 molto_nuvoloso Molto Nuvoloso 13 10 81 1000 10 O 44.4
Ieri h: 14:52 coperto_pioggia Pioggia Foschia 13 12 93 1000 3 O 51.8
Ieri h: 14:50 coperto_pioggia Pioggia Debole Foschia 14 11 82 1000 3 O 51.8
Ieri h: 14:33 coperto_pioggia Pioggia Debole 16 12 77 1000 10 O 48.1
Ieri h: 14:22 coperto_pioggia Pioggia Debole 15 11 76 1000 10 O 38.8
Ieri h: 14:21 coperto_pioggia Pioggia Debole 15 11 76 1000 10 O 38.8
Ieri h: 14:20 coperto_pioggia Pioggia Debole 15 12 82 1000 10 O 40.7
Ieri h: 13:50 coperto_pioggia Pioggia Debole 14 11 82 1001 10 O 33.3
Ieri h: 13:30 molto_nuvoloso Molto Nuvoloso 14 12 87 1002 8 O 29.6
Ieri h: 13:20 coperto_pioggia Pioggia Debole 14 11 82 1002 4 O 31.5
Ieri h: 12:50 molto_nuvoloso Molto Nuvoloso 14 12 87 1002 10 O 31.5
Ieri h: 12:20 molto_nuvoloso Molto Nuvoloso 14 12 87 1002 10 O/SO 31.5
Ieri h: 11:50 molto_nuvoloso Molto Nuvoloso 12 11 93 1002 10 O 33.3
Ieri h: 11:28 coperto_pioggia Pioggia Debole 12 11 93 1003 6 O 42.6
Ieri h: 11:20 coperto_pioggia Pioggia Debole Foschia 12 11 93 1003 3 O 38.8
Ieri h: 11:15 coperto_pioggia Pioggia Debole Foschia 12 11 93 1003 3 O 44.4
Ieri h: 11:08 coperto_pioggia Pioggia Debole 12 10 87 1003 4 O 46.3
Ieri h: 11:00 coperto_pioggia Pioggia Debole 13 11 87 1003 6 O 35.2
Ieri h: 10:50 coperto_pioggia Pioggia Debole 12 11 93 1003 4 O 33.3
Ieri h: 10:46 coperto_pioggia Pioggia Debole 12 12 100 1003 5 O 35.2
Ieri h: 10:30 coperto_pioggia Pioggia 13 12 93 1003 4 O 44.4
Ieri h: 10:20 coperto_pioggia Pioggia Foschia 13 12 93 1003 2 O 40.7
Ieri h: 10:17 coperto_pioggia Pioggia Foschia 13 12 93 1003 3 O/SO 37
Ieri h: 10:16 coperto_pioggia Pioggia Foschia 14 13 93 1003 3 O/SO 35.2
Ieri h: 10:15 coperto_pioggia Pioggia Foschia 15 14 93 1003 3 O/SO 33.3
Ieri h: 10:14 coperto_pioggia Pioggia Foschia 15 14 93 1003 4 O/SO 33.3
Ieri h: 10:06 coperto_pioggia Pioggia Debole 15 14 93 1003 5 O/SO 31.5
Ieri h: 09:50 coperto_pioggia Pioggia Debole 15 14 93 1003 10 SO 33.3
Ieri h: 09:20 coperto_pioggia Pioggia Debole 15 14 93 1004 8 O/SO 31.5
Ieri h: 09:07 coperto_pioggia Pioggia Debole 15 14 93 1004 10 O/SO 29.6
Ieri h: 08:50 coperto_pioggia Pioggia Debole 15 14 93 1005 5 O/SO 29.6
Ieri h: 08:45 coperto_pioggia Pioggia 15 14 93 1005 3 O/SO 25.9
Ieri h: 08:30 coperto_pioggia Pioggia Debole 15 14 93 1005 4 O/SO 25.9
Ieri h: 08:20 coperto_pioggia Pioggia Debole 15 14 93 1005 4 O/SO 27.8
Ieri h: 07:57 coperto_pioggia Pioggia Debole 15 14 93 1006 4 SO 22.2
Ieri h: 07:50 coperto_pioggia Pioviggine Leggera 15 14 93 1006 6 SO 24
Ieri h: 07:21 coperto_pioggia Pioggia Debole 15 14 93 1006 3 O/SO 22.2
Ieri h: 06:50 coperto_pioggia Pioggia Debole 15 14 93 1007 4 SO 18.5
Ieri h: 06:47 coperto_pioggia Pioggia Debole 15 14 93 1007 4 SO 16.7
Ieri h: 06:46 coperto_pioggia Pioggia Debole 15 14 93 1007 4 SO 16.7
Ieri h: 05:50 coperto_pioggia Pioggia Debole 15 13 87 1008 10 SO 22.2
Ieri h: 05:20 coperto Coperto 15 13 87 1009 10 O/SO 22.2
Ieri h: 04:50 coperto Coperto 15 14 93 1009 10 SO 22.2